Weather History for KAUG - May, 2013

Change the Weather History Date:

Monday, May 20, 2013

  Actual Average Record
Temperature  
Mean Temperature 59 °F 56 °F  
Max Temperature 71 °F 67 °F 86 °F (2003)
Min Temperature 48 °F 46 °F 36 °F (2002)
Degree Days  
Heating Degree Days 6 9  
Month to date heating degree days 238  
Since 1 July heating degree days 7242  
Cooling Degree Days 0 0  
Month to date cooling degree days 0  
Year to date cooling degree days 0  
Growing Degree Days 9 (Base 50)    
Moisture  
Dew Point 52 °F    
Average Humidity 91    
Maximum Humidity 100    
Minimum Humidity 61    
Precipitation  
Precipitation 0.43 in 0.12 in 0.49 in (2011)
Month to date precipitation 2.38  
Year to date precipitation 14.58  
Sea Level Pressure  
Sea Level Pressure 30.05 in    
Wind  
Wind Speed 6 mph (SSE)    
Max Wind Speed 10 mph    
Max Gust Speed 20 mph    
Visibility 6 miles    
Events Rain    
T = Trace of Precipitation, MM = Missing Value Source: NWS Daily Summary

Daily Weather History Graph

Daily Weather History Graph

Search for Another Location

Airport or City:

Trip Planner

Search our weather history database for the weather conditions in past years. The results will help you decide how hot, cold, wet, or windy it might be!

Date:

Astronomy

May. 20, 2013 Rise Set
Actual Time 5:06 AM EDT 8:05 PM EDT
Civil Twilight 4:32 AM EDT 8:39 PM EDT
Nautical Twilight 3:48 AM EDT 9:23 PM EDT
Astronomical Twilight 2:57 AM EDT 10:15 PM EDT
Moon 2:58 PM EDT (5/20) 2:11 AM EDT (5/20)
Length of Visible Light 16h 07m
Length of Day
14h 58m
Waxing Gibbous, 75% of the Moon is Illuminated
May 20
Waxing Gibbous
May 25
Full
May 31
Last Quarter
Jun 8
New
Jun 16
First Quarter

Hourly Weather History & Observations

Time (EDT) Temp. Dew Point Humidity Pressure Visibility Wind Dir Wind Speed Gust Speed Precip Events Conditions
12:36 AM 48.2 °F 48.2 °F 100% 30.21 in 1.8 mi SSE 6.9 mph - 0.01 in Rain Light Rain
12:51 AM 48.2 °F 48.2 °F 100% 30.21 in 2.5 mi SSE 6.9 mph - 0.01 in Rain Light Rain
12:53 AM 48.9 °F 48.0 °F 97% 30.22 in 2.5 mi SSE 6.9 mph - 0.02 in Rain Light Rain
1:25 AM 48.2 °F 48.2 °F 100% 30.19 in 3.0 mi SSE 4.6 mph - 0.03 in Rain Light Rain
1:53 AM 48.9 °F 48.0 °F 97% 30.19 in 5.0 mi SSE 5.8 mph - 0.06 in Rain Light Rain
2:41 AM 48.2 °F 48.2 °F 100% 30.16 in 1.8 mi SSE 4.6 mph - 0.08 in Rain Light Rain
2:53 AM 48.9 °F 48.9 °F 100% 30.16 in 1.8 mi SSE 4.6 mph - 0.10 in Rain Light Rain
3:20 AM 48.2 °F 48.2 °F 100% 30.14 in 2.5 mi SSE 5.8 mph - 0.04 in Rain Light Rain
3:29 AM 48.2 °F 48.2 °F 100% 30.14 in 4.0 mi SSE 4.6 mph - 0.05 in Rain Rain
3:49 AM 48.2 °F 48.2 °F 100% 30.12 in 2.0 mi SSE 8.1 mph - 0.09 in Rain Light Rain
3:53 AM 48.2 °F 48.2 °F 100% 30.12 in 2.0 mi SSE 9.2 mph - N/A Rain Light Rain
4:02 AM 48.2 °F 48.2 °F 100% 30.11 in 3.0 mi SSE 10.4 mph - 0.02 in Rain Light Rain
4:11 AM 50.0 °F 48.2 °F 94% 30.10 in 2.5 mi SSE 8.1 mph - 0.02 in Rain Light Rain
4:21 AM 50.0 °F 48.2 °F 94% 30.10 in 4.0 mi SSE 6.9 mph - 0.03 in Rain Light Rain
4:46 AM 50.0 °F 50.0 °F 100% 30.09 in 1.8 mi South 8.1 mph - 0.03 in Rain Light Rain
4:53 AM 50.0 °F 50.0 °F 100% 30.09 in 2.0 mi South 8.1 mph - 0.03 in Rain Light Rain
5:16 AM 51.8 °F 50.0 °F 94% 30.08 in 3.0 mi South 8.1 mph 17.3 mph 0.01 in Rain Light Rain
5:53 AM 51.1 °F 51.1 °F 100% 30.08 in 2.5 mi SSE 8.1 mph - 0.02 in Rain Light Rain
6:19 AM 51.8 °F 51.8 °F 100% 30.06 in 1.5 mi South 8.1 mph - 0.06 in Rain Heavy Rain
6:29 AM 51.8 °F 51.8 °F 100% 30.06 in 3.0 mi South 9.2 mph - 0.06 in Rain Light Rain
6:46 AM 51.8 °F 51.8 °F 100% 30.06 in 2.0 mi South 8.1 mph - 0.07 in   Overcast
6:53 AM 51.8 °F 51.8 °F 100% 30.07 in 1.5 mi SSE 8.1 mph - N/A Rain Light Rain
7:50 AM 51.8 °F 51.8 °F 100% 30.02 in 3.0 mi South 9.2 mph 19.6 mph 0.10 in Rain Light Rain
7:53 AM 52.0 °F 52.0 °F 100% 30.03 in 3.0 mi South 8.1 mph 19.6 mph 0.11 in Rain Light Rain
8:53 AM 52.0 °F 51.1 °F 97% 30.03 in 6.0 mi South 6.9 mph - 0.06 in Rain Light Rain
9:53 AM 52.0 °F 51.1 °F 97% 30.02 in 10.0 mi SSW 3.5 mph - 0.02 in Rain Light Rain
10:53 AM 53.1 °F 52.0 °F 96% 30.02 in 10.0 mi WSW 3.5 mph - 0.01 in   Overcast
11:35 AM 55.4 °F 53.6 °F 94% 29.99 in 10.0 mi West 4.6 mph - N/A   Overcast
11:53 AM 57.0 °F 54.0 °F 89% 29.99 in 10.0 mi WSW 5.8 mph - N/A   Overcast
12:53 PM 59.0 °F 54.0 °F 83% 29.97 in 10.0 mi Calm Calm - N/A   Overcast
1:32 PM 62.6 °F 55.4 °F 77% 29.95 in 10.0 mi Calm Calm - N/A   Mostly Cloudy
1:53 PM 64.0 °F 57.0 °F 78% 29.95 in 10.0 mi Variable 3.5 mph - N/A   Mostly Cloudy
2:03 PM 64.4 °F 57.2 °F 77% 29.95 in 10.0 mi NW 5.8 mph - N/A   Mostly Cloudy
2:45 PM 69.8 °F 57.2 °F 64% 29.94 in 10.0 mi NW 6.9 mph - N/A   Overcast
2:53 PM 68.0 °F 57.0 °F 68% 29.94 in 10.0 mi NW 8.1 mph - N/A   Overcast
3:53 PM 70.0 °F 57.0 °F 63% 29.94 in 10.0 mi Calm Calm - N/A   Mostly Cloudy
4:53 PM 69.1 °F 57.0 °F 65% 29.93 in 10.0 mi East 3.5 mph - N/A   Overcast
5:53 PM 70.0 °F 55.9 °F 61% 29.94 in 10.0 mi East 3.5 mph - N/A   Scattered Clouds
6:53 PM 69.1 °F 57.0 °F 65% 29.94 in 10.0 mi ESE 3.5 mph - N/A   Mostly Cloudy
7:53 PM 66.9 °F 57.9 °F 73% 29.95 in 10.0 mi SE 5.8 mph - N/A   Overcast
8:53 PM 62.1 °F 57.9 °F 86% 29.97 in 10.0 mi ESE 10.4 mph - N/A   Mostly Cloudy
9:53 PM 59.0 °F 57.2 °F 94% 29.98 in 10.0 mi ESE 9.2 mph - N/A   Clear
10:03 PM 59.0 °F 55.4 °F 88% 29.98 in 10.0 mi ESE 6.9 mph - N/A   Partly Cloudy
10:16 PM 57.2 °F 55.4 °F 94% 29.99 in 10.0 mi East 10.4 mph - N/A   Mostly Cloudy
10:53 PM 57.9 °F 55.9 °F 93% 29.99 in 10.0 mi SE 8.1 mph - N/A   Overcast
11:53 PM 57.0 °F 55.9 °F 96% 30.01 in 10.0 mi SSE 5.8 mph - N/A   Overcast